{"data":{"norad_id":63059,"epoch":"2026-05-24T18:28:02.001504Z","epoch_age_seconds":98514,"freshness":"FRESH","line1":"1 63059U 25035H   26144.76946761  .00150596  00000+0  11556-2 0  9996","line2":"2 63059  42.9997 276.9888 0001593 253.5426 106.5267 15.70847629 73060","mean_motion":15.70847629,"eccentricity":0.0001593,"inclination_deg":42.9997,"raan_deg":276.9888,"arg_perigee_deg":253.5426,"mean_anomaly_deg":106.5267,"bstar":0.0011556,"rev_number":7306,"period_min":91.670253270631,"perigee_km":355.40043313315,"apogee_km":357.54607996089,"semimajor_km":6734.610256547,"source":"CELESTRAK","updated_at":"2026-05-25T13:38:19.872521Z"}}